Regional Weather Roundup
Issued by NWS

Home | Current Version | Previous Version | Graphics & Text | Print | Product List | Glossary On
Versions: 1 2 3 4 5 6 7 8 9 10 11 12 13 14 15 16 17 18 19 20 21 22 23 24 25 26 27 28 29 30 31 32 33 34 35 36 37 38 39 40 41 42 43 44 45 46 47 48 49 50
000
ASUS45 KBOU 251907
RWRCO

WEATHER ROUNDUP FOR COLORADO
NATIONAL WEATHER SERVICE DENVER/BOULDER CO
1200 PM MST SUN JAN 25 2015

NOTE: "FAIR" INDICATES FEW OR NO CLOUDS BELOW 12000 FEET WITH NO
SIGNIFICANT WEATHER AND/OR OBSTRUCTIONS TO VISIBILITY.

COZ001>005-013-030-031-252000-
...NORTHWEST COLORADO...

CITY           SKY/WX    TMP DP  RH WIND       PRES   REMARKS
CRAIG          PTSUNNY   30  21  69 CALM      30.38F
HAYDEN         PTSUNNY   34  23  64 CALM      30.38F
MEEKER         MOSUNNY   30  19  63 CALM      30.38F
MOUNT WERNER   NOT AVBL
STEAMBOAT SPGS CLOUDY    34  25  70 E5        30.38F WCI  30
WALDEN         MOSUNNY   36  27  69 S15       30.32F
$$

COZ006>008-011-252000-
...WEST CENTRAL VALLEYS...

CITY           SKY/WX    TMP DP  RH WIND       PRES   REMARKS
GRAND JUNCTION SUNNY     42  18  37 SW3       30.39F
MONTROSE       SUNNY     42  19  39 NW7       30.38F
EAGLE          MOSUNNY   37  21  52 CALM      30.41F
RIFLE          SUNNY     42  18  37 CALM      30.39F
DELTA          SUNNY     43  19  38 CALM      30.38F
NUCLA          SUNNY     43  21  42 NW5       30.39F
$$

COZ017>023-064>068-252000-
...SOUTHWEST COLORADO...

CITY           SKY/WX    TMP DP  RH WIND       PRES   REMARKS
DURANGO        SUNNY     38  20  48 CALM      30.32F
CORTEZ         SUNNY     45  22  40 VRB6      30.33F
PAGOSA SPRINGS SUNNY     41  14  33 CALM      30.32F
TELLURIDE      SUNNY     44  20  37 CALM      30.40F
WOLF CREEK PAS NOT AVBL
$$

COZ009-010-012-014-032>034-037-058>063-252000-
...CENTRAL COLORADO...

CITY           SKY/WX    TMP DP  RH WIND       PRES   REMARKS
ASPEN          MOSUNNY   41  24  51 NW3       30.38F
BUENA VISTA    MOSUNNY   45  22  40 NW20G35   30.26F
COPPER MTN     CLOUDY    27  21  80 MISG      30.41F
BERTHOUD PASS  NOT AVBL
COTTONWOOD PAS MOSUNNY   43  18  36 W21G32    30.30F
GUNNISON       SUNNY     10   1  67 SE3       30.45F
KREMMLING      CLOUDY    37  27  65 CALM      30.39S
LEADVILLE      MOSUNNY   35  20  54 NW14G24   30.35F WCI  26
MONARCH PASS   SUNNY     21  19  93 MISG      30.48R
SALIDA         MOSUNNY   50  18  27 NW5       30.34F
SUNLIGHT       MOSUNNY   32  27  80 NW5         N/A  WCI  27
WILKERSON PASS SUNNY     32  18  55 W7G17     30.35F WCI  26
$$

COZ069>075-252000-
...SAN LUIS VALLEY/SANGRE DE CRISTO MOUNTAINS...

CITY           SKY/WX    TMP DP  RH WIND       PRES   REMARKS
ALAMOSA        SUNNY     42  17  36 CALM      30.31F
LA VETA PASS   NOT AVBL
SAGUACHE       SUNNY     43  23  45 CALM      30.31F
$$

COZ035-036-038>040-252000-
...NORTHERN COLORADO FRONT RANGE...

CITY           SKY/WX    TMP DP  RH WIND       PRES   REMARKS
DENVER INTL AP MOSUNNY   56  24  29 NW9       30.15F
DMNS CITY PARK   N/A     58  23  25 NW6       30.14F
AURORA         MOSUNNY   55  24  30 NW7       30.16F
FRONT RANGE AP NOT AVBL
ERIE MUNI ARPT MOSUNNY   59  24  26 NE6       30.14F
BOULDER MUN AP MOSUNNY   59  27  29 NW12G18   30.13F
CENTENNIAL     PTSUNNY   54  25  32 NW13      30.16F
BROOMFIELD     MOSUNNY   59  25  27 W9G24     30.16F
FORT COLLINS   MOSUNNY   52  30  43 S7        30.15F
LONGMONT       MOSUNNY   59  27  29 E7        30.15F
$$

COZ041-046-047-076>085-087-088-252000-
...PIKES PEAK/PALMER DIVIDE AND SOUTHERN FOOTHILLS...

CITY           SKY/WX    TMP DP  RH WIND       PRES   REMARKS
COLO. SPRINGS  MOSUNNY   46  26  45 SW5       30.20F
A. F. ACADEMY  SUNNY     44  27  51 S8        30.18F
ELLICOTT       SUNNY    N/A N/A N/A W3        30.18F
FALCON         SUNNY     50  23  35 N8        30.20F
FORT CARSON    SUNNY     46  28  49 VRB1      30.17F
LIMON          PTSUNNY   50  24  36 NW10      30.16F
MONUMENT HILL  SUNNY     45  27  49 NW10      30.19F
TRINIDAD       SUNNY     48  31  51 SE5       30.21F
$$

COZ042>045-048>051-090-091-252000-
...NORTHEAST COLORADO...

CITY           SKY/WX    TMP DP  RH WIND       PRES   REMARKS
GREELEY ARPT   CLOUDY    43  28  56 CALM      30.14F
AKRON          CLOUDY    48  31  51 NW12      30.14F
BURLINGTON     MOSUNNY   50  29  44 N23G31    30.12F
WRAY           MOSUNNY   52  30  43 NW18G28   30.10F
STERLING       PTSUNNY   54  36  50 N12       30.10F
HOLYOKE        SUNNY     54  30  40 NW26G36   30.08F
FORT MORGAN    PTSUNNY   46  30  54 W8        30.15F
$$

COZ086-089-092>099-252000-
...SOUTHEAST COLORADO...

CITY           SKY/WX    TMP DP  RH WIND       PRES   REMARKS
PUEBLO         SUNNY     48  29  47 CALM      30.18F
LA JUNTA       SUNNY     52  31  44 W8        30.19F
LAMAR          SUNNY     50  34  54 W13       30.17F
SPRINGFIELD      N/A     53  29  39 NW14G21   30.17F
$$


USA.gov is the U.S. government's official web portal to all federal, state and local government web resources and services.